Wetterdaten: Sonntag, 02.11.2014
Datum Zeit Temp. A. Mod.Schuppen Waschkche Feuchte A. Luftdruck Regen Wind Richtung Richtung Sonnenschein Helligkeit Solar
02.11.2014 00:00 13,3 C 11,5 C 15,4 C 84 % 1017,0 hPa 0,0 l/m 13,8 km/h (3 Bft) S-SO22.5 160 0 min 0 lux 0 W/m
02.11.2014 00:04 13,3 C 11,5 C 15,4 C 84 % 1017,0 hPa 0,0 l/m 13,1 km/h (3 Bft) S-SO22.5 150 0 min 0 lux 0 W/m
02.11.2014 00:09 13,3 C 11,6 C 15,4 C 84 % 1017,0 hPa 0,0 l/m 11,5 km/h (2 Bft) SO45 145 0 min 0 lux 0 W/m
02.11.2014 00:14 13,4 C 11,6 C 15,4 C 83 % 1017,0 hPa 0,0 l/m 11,5 km/h (2 Bft) SO45 145 0 min 0 lux 0 W/m
02.11.2014 00:19 13,4 C 11,5 C 15,4 C 83 % 1017,0 hPa 0,0 l/m 13,5 km/h (3 Bft) S22.5 170 0 min 0 lux 0 W/m
02.11.2014 00:25 13,4 C 11,5 C 15,4 C 83 % 1017,0 hPa 0,0 l/m 11,9 km/h (2 Bft) S-SO22.5 150 0 min 0 lux 0 W/m
02.11.2014 00:30 13,4 C 11,4 C 15,4 C 83 % 1017,0 hPa 0,0 l/m 14,5 km/h (3 Bft) S-SO22.5 160 0 min 0 lux 0 W/m
02.11.2014 00:34 13,4 C 11,2 C 15,4 C 83 % 1017,0 hPa 0,0 l/m 12,4 km/h (2 Bft) S-SO22.5 155 0 min 0 lux 0 W/m
02.11.2014 00:39 13,4 C 11,1 C 15,4 C 83 % 1017,0 hPa 0,0 l/m 12,4 km/h (2 Bft) S-SO22.5 155 0 min 0 lux 0 W/m
02.11.2014 00:44 13,4 C 11,1 C 15,4 C 83 % 1017,0 hPa 0,0 l/m 13,0 km/h (3 Bft) S-SO22.5 155 0 min 0 lux 0 W/m
02.11.2014 00:49 13,3 C 11,0 C 15,4 C 83 % 1017,0 hPa 0,0 l/m 13,5 km/h (3 Bft) S-SO22.5 155 0 min 0 lux 0 W/m
02.11.2014 00:54 13,2 C 11,0 C 15,4 C 83 % 1017,0 hPa 0,0 l/m 12,8 km/h (3 Bft) S-SO22.5 160 0 min 0 lux 0 W/m
02.11.2014 01:00 13,2 C 11,0 C 15,4 C 83 % 1016,0 hPa 0,0 l/m 16,1 km/h (3 Bft) S-SO22.5 160 0 min 0 lux 0 W/m
02.11.2014 01:04 13,2 C 10,9 C 15,4 C 84 % 1016,0 hPa 0,0 l/m 10,1 km/h (2 Bft) S-SO22.5 165 0 min 0 lux 0 W/m
02.11.2014 01:09 13,2 C 10,9 C 15,4 C 84 % 1016,0 hPa 0,0 l/m 10,1 km/h (2 Bft) S-SO22.5 165 0 min 0 lux 0 W/m
02.11.2014 01:14 13,1 C 10,9 C 15,3 C 84 % 1016,0 hPa 0,0 l/m 16,3 km/h (3 Bft) S-SO22.5 160 0 min 0 lux 0 W/m
02.11.2014 01:19 13,1 C 11,0 C 15,3 C 84 % 1016,0 hPa 0,0 l/m 16,3 km/h (3 Bft) S-SO22.5 160 0 min 0 lux 0 W/m
02.11.2014 01:24 13,1 C 10,9 C 15,3 C 84 % 1016,0 hPa 0,0 l/m 11,9 km/h (2 Bft) S-SO22.5 160 0 min 0 lux 0 W/m
02.11.2014 01:25 13,1 C 10,9 C 15,3 C 84 % 1016,0 hPa 0,0 l/m 11,9 km/h (2 Bft) S-SO22.5 160 0 min 0 lux 0 W/m
02.11.2014 01:29 13,0 C 10,8 C 15,3 C 84 % 1016,0 hPa 0,0 l/m 12,5 km/h (2 Bft) S-SO22.5 150 0 min 0 lux 0 W/m
02.11.2014 01:34 13,0 C 10,9 C 15,3 C 84 % 1016,0 hPa 0,0 l/m 12,6 km/h (3 Bft) S-SO22.5 165 0 min 0 lux 0 W/m
02.11.2014 01:40 13,0 C 10,9 C 15,3 C 84 % 1016,0 hPa 0,0 l/m 11,6 km/h (2 Bft) S-SO45 150 0 min 0 lux 0 W/m
02.11.2014 01:45 13,0 C 10,9 C 15,3 C 84 % 1016,0 hPa 0,0 l/m 13,0 km/h (3 Bft) S-SO22.5 150 0 min 0 lux 0 W/m
02.11.2014 01:49 12,9 C 10,8 C 15,3 C 84 % 1016,0 hPa 0,0 l/m 11,6 km/h (2 Bft) S-SO22.5 160 0 min 0 lux 0 W/m
02.11.2014 01:54 12,9 C 10,8 C 15,3 C 84 % 1016,0 hPa 0,0 l/m 10,2 km/h (2 Bft) S-SO45 155 0 min 0 lux 0 W/m
02.11.2014 01:59 12,9 C 10,8 C 15,3 C 84 % 1016,0 hPa 0,0 l/m 14,7 km/h (3 Bft) S-SO45 155 0 min 0 lux 0 W/m
02.11.2014 02:04 12,8 C 10,7 C 15,3 C 84 % 1016,0 hPa 0,0 l/m 11,5 km/h (2 Bft) S-SO22.5 155 0 min 0 lux 0 W/m
02.11.2014 02:10 12,8 C 10,7 C 15,3 C 84 % 1016,0 hPa 0,0 l/m 14,1 km/h (3 Bft) S-SO22.5 150 0 min 0 lux 0 W/m
02.11.2014 02:15 12,8 C 10,6 C 15,3 C 85 % 1016,0 hPa 0,0 l/m 15,3 km/h (3 Bft) S-SO22.5 160 0 min 0 lux 0 W/m
02.11.2014 02:19 12,7 C 10,7 C 15,3 C 85 % 1016,0 hPa 0,0 l/m 12,2 km/h (2 Bft) S-SO22.5 155 0 min 0 lux 0 W/m
02.11.2014 02:24 12,7 C 10,8 C 15,2 C 85 % 1016,0 hPa 0,0 l/m 14,4 km/h (3 Bft) S-SO22.5 150 0 min 0 lux 0 W/m
02.11.2014 02:29 12,7 C 10,9 C 15,2 C 85 % 1016,0 hPa 0,0 l/m 13,9 km/h (3 Bft) S-SO45 165 0 min 0 lux 0 W/m
02.11.2014 02:34 12,7 C 11,0 C 15,2 C 85 % 1016,0 hPa 0,0 l/m 11,8 km/h (2 Bft) S-SO22.5 150 0 min 0 lux 0 W/m
02.11.2014 02:39 12,8 C 11,1 C 15,2 C 85 % 1016,0 hPa 0,0 l/m 16,2 km/h (3 Bft) S-SO22.5 160 0 min 0 lux 0 W/m
02.11.2014 02:44 12,8 C 11,2 C 15,2 C 85 % 1016,0 hPa 0,0 l/m 15,4 km/h (3 Bft) S-SO22.5 155 0 min 0 lux 0 W/m
02.11.2014 02:50 12,8 C 11,2 C 15,2 C 85 % 1016,0 hPa 0,0 l/m 14,8 km/h (3 Bft) S-SO45 160 0 min 0 lux 0 W/m
02.11.2014 02:55 12,8 C 11,1 C 15,2 C 85 % 1016,0 hPa 0,0 l/m 12,4 km/h (2 Bft) S-SO22.5 160 0 min 0 lux 0 W/m
02.11.2014 02:59 12,8 C 11,0 C 15,2 C 85 % 1015,0 hPa 0,0 l/m 14,0 km/h (3 Bft) S-SO22.5 155 0 min 0 lux 0 W/m
02.11.2014 03:04 12,8 C 10,9 C 15,1 C 84 % 1015,0 hPa 0,0 l/m 15,6 km/h (3 Bft) S-SO22.5 155 0 min 0 lux 0 W/m
02.11.2014 03:09 12,8 C 10,9 C 15,1 C 84 % 1015,0 hPa 0,0 l/m 10,7 km/h (2 Bft) S-SO22.5 150 0 min 0 lux 0 W/m
02.11.2014 03:14 12,8 C 10,6 C 15,2 C 84 % 1015,0 hPa 0,0 l/m 15,0 km/h (3 Bft) S-SO22.5 165 0 min 0 lux 0 W/m
02.11.2014 03:19 12,6 C 10,5 C 15,1 C 85 % 1015,0 hPa 0,0 l/m 16,4 km/h (3 Bft) S-SO22.5 165 0 min 0 lux 0 W/m
02.11.2014 03:24 12,6 C 10,6 C 15,1 C 85 % 1015,0 hPa 0,0 l/m 14,5 km/h (3 Bft) S-SO45 165 0 min 0 lux 0 W/m
02.11.2014 03:29 12,6 C 10,8 C 15,1 C 85 % 1015,0 hPa 0,0 l/m 14,6 km/h (3 Bft) S-SO22.5 160 0 min 0 lux 0 W/m
02.11.2014 03:34 12,6 C 11,0 C 15,1 C 85 % 1015,0 hPa 0,0 l/m 15,8 km/h (3 Bft) S-SO22.5 160 0 min 0 lux 0 W/m
02.11.2014 03:39 12,6 C 11,1 C 15,1 C 85 % 1015,0 hPa 0,0 l/m 15,1 km/h (3 Bft) S-SO22.5 155 0 min 0 lux 0 W/m
02.11.2014 03:45 12,6 C 11,2 C 15,1 C 85 % 1015,0 hPa 0,0 l/m 15,1 km/h (3 Bft) S-SO22.5 155 0 min 0 lux 0 W/m
02.11.2014 03:49 12,6 C 11,2 C 15,1 C 85 % 1015,0 hPa 0,0 l/m 15,1 km/h (3 Bft) S-SO22.5 155 0 min 0 lux 0 W/m
02.11.2014 03:54 12,6 C 11,2 C 15,1 C 85 % 1015,0 hPa 0,0 l/m 12,8 km/h (3 Bft) S-SO22.5 165 0 min 0 lux 0 W/m
02.11.2014 03:59 12,6 C 11,2 C 15,1 C 85 % 1015,0 hPa 0,0 l/m 14,0 km/h (3 Bft) S-SO22.5 155 0 min 0 lux 0 W/m
02.11.2014 04:04 12,6 C 11,4 C 15,1 C 85 % 1015,0 hPa 0,0 l/m 14,3 km/h (3 Bft) S-SO22.5 165 0 min 0 lux 0 W/m
02.11.2014 04:10 12,6 C 11,5 C 15,1 C 85 % 1015,0 hPa 0,0 l/m 13,0 km/h (3 Bft) S-SO22.5 160 0 min 0 lux 0 W/m
02.11.2014 04:15 12,7 C 11,6 C 15,0 C 85 % 1015,0 hPa 0,0 l/m 16,1 km/h (3 Bft) S-SO22.5 160 0 min 0 lux 0 W/m
02.11.2014 04:19 12,7 C 11,8 C 15,0 C 85 % 1015,0 hPa 0,0 l/m 13,1 km/h (3 Bft) S-SO22.5 160 0 min 0 lux 0 W/m
02.11.2014 04:24 12,7 C 11,9 C 15,0 C 84 % 1015,0 hPa 0,0 l/m 13,1 km/h (3 Bft) S-SO22.5 165 0 min 0 lux 0 W/m
02.11.2014 04:29 12,8 C 11,9 C 15,0 C 84 % 1015,0 hPa 0,0 l/m 12,7 km/h (3 Bft) S-SO22.5 165 0 min 0 lux 0 W/m
02.11.2014 04:34 12,8 C 11,9 C 15,0 C 84 % 1015,0 hPa 0,0 l/m 12,7 km/h (3 Bft) S-SO22.5 165 0 min 0 lux 0 W/m
02.11.2014 04:40 12,8 C 11,9 C 15,0 C 84 % 1015,0 hPa 0,0 l/m 16,8 km/h (3 Bft) S-SO22.5 165 0 min 0 lux 0 W/m
02.11.2014 04:45 12,7 C 11,8 C 15,0 C 84 % 1015,0 hPa 0,0 l/m 16,8 km/h (3 Bft) S-SO22.5 165 0 min 0 lux 0 W/m
02.11.2014 04:49 12,8 C 11,8 C 15,0 C 84 % 1015,0 hPa 0,0 l/m 15,1 km/h (3 Bft) S-SO22.5 160 0 min 0 lux 0 W/m
02.11.2014 04:54 12,8 C 11,9 C 15,0 C 84 % 1015,0 hPa 0,0 l/m 14,8 km/h (3 Bft) S-SO22.5 165 0 min 0 lux 0 W/m
02.11.2014 04:59 12,8 C 11,8 C 15,0 C 84 % 1015,0 hPa 0,0 l/m 14,8 km/h (3 Bft) S45 180 0 min 0 lux 0 W/m
02.11.2014 05:05 12,8 C 11,9 C 15,0 C 84 % 1015,0 hPa 0,0 l/m 11,8 km/h (2 Bft) S22.5 170 0 min 0 lux 0 W/m
02.11.2014 05:04 12,8 C 11,9 C 15,0 C 84 % 1015,0 hPa 0,0 l/m 11,8 km/h (2 Bft) S22.5 170 0 min 0 lux 0 W/m
02.11.2014 05:10 12,8 C 11,9 C 15,0 C 84 % 1015,0 hPa 0,0 l/m 10,2 km/h (2 Bft) S45 175 0 min 0 lux 0 W/m
02.11.2014 05:15 12,8 C 11,9 C 15,0 C 84 % 1015,0 hPa 0,0 l/m 14,8 km/h (3 Bft) S45 175 0 min 0 lux 0 W/m
02.11.2014 05:14 12,8 C 11,9 C 15,0 C 84 % 1015,0 hPa 0,0 l/m 14,8 km/h (3 Bft) S45 175 0 min 0 lux 0 W/m
02.11.2014 05:20 12,8 C 11,9 C 15,0 C 84 % 1015,0 hPa 0,0 l/m 17,1 km/h (3 Bft) S22.5 175 0 min 0 lux 0 W/m
02.11.2014 05:25 12,8 C 11,9 C 15,0 C 84 % 1015,0 hPa 0,0 l/m 14,3 km/h (3 Bft) S45 170 0 min 0 lux 0 W/m
02.11.2014 05:29 12,8 C 11,9 C 15,0 C 84 % 1015,0 hPa 0,0 l/m 19,5 km/h (3 Bft) S-SO22.5 165 0 min 0 lux 0 W/m
02.11.2014 05:34 12,8 C 12,0 C 15,0 C 84 % 1015,0 hPa 0,0 l/m 18,3 km/h (3 Bft) S-SO45 165 0 min 0 lux 0 W/m
02.11.2014 05:39 12,8 C 12,0 C 15,0 C 84 % 1015,0 hPa 0,0 l/m 14,8 km/h (3 Bft) S-SO22.5 165 0 min 0 lux 0 W/m
02.11.2014 05:44 12,8 C 12,1 C 15,0 C 83 % 1015,0 hPa 0,0 l/m 15,4 km/h (3 Bft) S45 170 0 min 0 lux 0 W/m
02.11.2014 05:49 12,8 C 12,0 C 14,9 C 83 % 1015,0 hPa 0,0 l/m 16,6 km/h (3 Bft) S-SO22.5 160 0 min 0 lux 0 W/m
02.11.2014 05:50 12,8 C 12,0 C 14,9 C 83 % 1015,0 hPa 0,0 l/m 16,6 km/h (3 Bft) S-SO22.5 160 0 min 0 lux 0 W/m
02.11.2014 05:54 12,8 C 11,9 C 14,9 C 83 % 1015,0 hPa 0,0 l/m 18,3 km/h (3 Bft) S-SO67.5 160 0 min 0 lux 0 W/m
02.11.2014 06:00 12,8 C 11,8 C 14,9 C 83 % 1015,0 hPa 0,0 l/m 15,1 km/h (3 Bft) S-SO22.5 165 0 min 0 lux 0 W/m
02.11.2014 06:04 12,8 C 11,9 C 14,9 C 83 % 1015,0 hPa 0,0 l/m 15,1 km/h (3 Bft) S-SO22.5 165 0 min 0 lux 0 W/m
02.11.2014 06:09 12,8 C 11,8 C 14,9 C 83 % 1015,0 hPa 0,0 l/m 14,7 km/h (3 Bft) S-SO22.5 155 0 min 0 lux 0 W/m
02.11.2014 06:14 12,8 C 11,6 C 14,9 C 83 % 1015,0 hPa 0,0 l/m 15,3 km/h (3 Bft) S-SO45 165 0 min 0 lux 0 W/m
02.11.2014 06:19 12,8 C 11,6 C 14,9 C 84 % 1015,0 hPa 0,0 l/m 14,5 km/h (3 Bft) S45 170 0 min 0 lux 0 W/m
02.11.2014 06:25 12,8 C 11,6 C 14,9 C 84 % 1015,0 hPa 0,0 l/m 13,0 km/h (3 Bft) S22.5 170 0 min 0 lux 0 W/m
02.11.2014 06:29 12,8 C 11,6 C 14,9 C 84 % 1015,0 hPa 0,0 l/m 12,5 km/h (2 Bft) S-SO22.5 165 0 min 0 lux 0 W/m
02.11.2014 06:34 12,8 C 11,7 C 14,9 C 84 % 1015,0 hPa 0,0 l/m 11,8 km/h (2 Bft) S45 175 0 min 0 lux 0 W/m
02.11.2014 06:39 12,8 C 11,7 C 14,9 C 84 % 1015,0 hPa 0,0 l/m 11,6 km/h (2 Bft) S-SO22.5 155 0 min 0 lux 0 W/m
02.11.2014 06:44 12,8 C 11,7 C 14,9 C 84 % 1015,0 hPa 0,0 l/m 13,7 km/h (3 Bft) S-SO22.5 160 0 min 0 lux 0 W/m
02.11.2014 06:49 12,8 C 11,6 C 14,9 C 84 % 1015,0 hPa 0,0 l/m 14,3 km/h (3 Bft) S-SO22.5 165 0 min 0 lux 0 W/m
02.11.2014 06:54 12,8 C 11,6 C 14,9 C 84 % 1015,0 hPa 0,0 l/m 15,6 km/h (3 Bft) S-SO22.5 165 0 min 0 lux 0 W/m
02.11.2014 06:59 12,7 C 11,4 C 14,9 C 84 % 1015,0 hPa 0,0 l/m 16,2 km/h (3 Bft) S-SO22.5 165 0 min 0 lux 0 W/m
02.11.2014 07:05 12,7 C 11,2 C 14,9 C 84 % 1015,0 hPa 0,0 l/m 16,2 km/h (3 Bft) S-SO22.5 165 0 min 0 lux 0 W/m
02.11.2014 07:09 12,7 C 11,2 C 14,8 C 84 % 1015,0 hPa 0,0 l/m 12,3 km/h (2 Bft) S-SO22.5 165 0 min 33 lux 0 W/m
02.11.2014 07:14 12,7 C 11,3 C 14,9 C 84 % 1015,0 hPa 0,0 l/m 13,5 km/h (3 Bft) S-SO22.5 165 0 min 33 lux 0 W/m
02.11.2014 07:19 12,6 C 11,3 C 14,9 C 84 % 1015,0 hPa 0,0 l/m 14,6 km/h (3 Bft) S-SO22.5 160 0 min 75 lux 0 W/m
02.11.2014 07:24 12,7 C 11,4 C 14,9 C 84 % 1015,0 hPa 0,0 l/m 14,6 km/h (3 Bft) S-SO22.5 160 0 min 141 lux 0 W/m
02.11.2014 07:30 12,8 C 11,4 C 14,9 C 84 % 1015,0 hPa 0,0 l/m 17,7 km/h (3 Bft) S-SO22.5 155 0 min 239 lux 0 W/m
02.11.2014 07:35 12,8 C 11,5 C 14,8 C 84 % 1015,0 hPa 0,0 l/m 14,4 km/h (3 Bft) S-SO45 165 0 min 404 lux 3 W/m
02.11.2014 07:34 12,8 C 11,5 C 14,8 C 84 % 1015,0 hPa 0,0 l/m 14,4 km/h (3 Bft) S-SO45 165 0 min 404 lux 3 W/m
02.11.2014 07:40 12,8 C 11,4 C 14,8 C 84 % 1015,0 hPa 0,0 l/m 14,4 km/h (3 Bft) S-SO45 165 0 min 520 lux 4 W/m
02.11.2014 07:44 12,7 C 11,4 C 14,8 C 84 % 1015,0 hPa 0,0 l/m 18,3 km/h (3 Bft) S-SO22.5 165 0 min 773 lux 5 W/m
02.11.2014 07:49 12,7 C 11,1 C 14,8 C 84 % 1015,0 hPa 0,0 l/m 14,8 km/h (3 Bft) S-SO22.5 165 0 min 1,09 klux 7 W/m
02.11.2014 07:54 12,7 C 10,8 C 14,8 C 84 % 1015,0 hPa 0,0 l/m 14,8 km/h (3 Bft) S-SO22.5 165 0 min 1,33 klux 9 W/m
02.11.2014 07:59 12,6 C 10,6 C 14,8 C 84 % 1015,0 hPa 0,0 l/m 13,5 km/h (3 Bft) S-SO22.5 160 0 min 1,48 klux 10 W/m
02.11.2014 08:05 12,6 C 10,6 C 14,8 C 84 % 1015,0 hPa 0,0 l/m 15,7 km/h (3 Bft) S-SO22.5 160 0 min 1,48 klux 10 W/m
02.11.2014 08:04 12,6 C 10,6 C 14,8 C 84 % 1015,0 hPa 0,0 l/m 15,7 km/h (3 Bft) S-SO22.5 160 0 min 1,48 klux 10 W/m
02.11.2014 08:10 12,5 C 10,6 C 14,8 C 84 % 1015,0 hPa 0,0 l/m 13,9 km/h (3 Bft) S-SO67.5 155 0 min 1,48 klux 10 W/m
02.11.2014 08:15 12,5 C 10,8 C 14,8 C 84 % 1015,0 hPa 0,0 l/m 13,9 km/h (3 Bft) S-SO67.5 155 0 min 2,46 klux 17 W/m
02.11.2014 08:19 12,5 C 11,0 C 14,8 C 84 % 1015,0 hPa 0,0 l/m 13,9 km/h (3 Bft) S-SO67.5 155 0 min 3,06 klux 21 W/m
02.11.2014 08:24 12,5 C 11,1 C 14,8 C 84 % 1015,0 hPa 0,0 l/m 16,1 km/h (3 Bft) S-SO45 150 0 min 3,98 klux 27 W/m
02.11.2014 08:29 12,6 C 11,4 C 14,7 C 84 % 1015,0 hPa 0,0 l/m 15,8 km/h (3 Bft) S-SO22.5 155 0 min 4,47 klux 31 W/m
02.11.2014 08:34 12,6 C 11,5 C 14,7 C 84 % 1015,0 hPa 0,0 l/m 15,8 km/h (3 Bft) S-SO22.5 155 0 min 4,57 klux 31 W/m
02.11.2014 08:40 12,6 C 11,5 C 14,7 C 84 % 1015,0 hPa 0,0 l/m 15,9 km/h (3 Bft) SO22.5 145 0 min 4,68 klux 32 W/m
02.11.2014 08:44 12,6 C 11,7 C 14,7 C 84 % 1015,0 hPa 0,0 l/m 14,9 km/h (3 Bft) S-SO22.5 150 0 min 5,09 klux 35 W/m
02.11.2014 08:49 12,6 C 12,0 C 14,7 C 84 % 1015,0 hPa 0,0 l/m 15,0 km/h (3 Bft) SO22.5 145 0 min 3,90 klux 27 W/m
02.11.2014 08:54 12,6 C 12,0 C 14,7 C 84 % 1015,0 hPa 0,0 l/m 13,5 km/h (3 Bft) S-SO22.5 160 0 min 3,49 klux 24 W/m
02.11.2014 08:59 12,7 C 12,0 C 14,6 C 84 % 1015,0 hPa 0,0 l/m 14,8 km/h (3 Bft) S-SO67.5 150 0 min 3,49 klux 24 W/m
02.11.2014 09:04 12,7 C 11,7 C 14,6 C 84 % 1015,0 hPa 0,0 l/m 11,6 km/h (2 Bft) S-SO45 155 0 min 4,16 klux 28 W/m
02.11.2014 09:09 12,6 C 11,5 C 14,6 C 84 % 1015,0 hPa 0,0 l/m 11,0 km/h (2 Bft) S-SO22.5 155 0 min 4,62 klux 32 W/m
02.11.2014 09:14 12,7 C 11,6 C 14,7 C 84 % 1015,0 hPa 0,0 l/m 14,3 km/h (3 Bft) S-SO22.5 165 0 min 6,64 klux 45 W/m
02.11.2014 09:19 12,7 C 11,7 C 14,6 C 84 % 1015,0 hPa 0,0 l/m 14,1 km/h (3 Bft) S22.5 170 0 min 11,2 klux 77 W/m
02.11.2014 09:24 12,8 C 12,0 C 14,6 C 84 % 1015,0 hPa 0,0 l/m 19,7 km/h (3 Bft) S-SO22.5 160 0 min 6,73 klux 46 W/m
02.11.2014 09:30 12,8 C 12,2 C 14,6 C 84 % 1015,0 hPa 0,0 l/m 19,6 km/h (3 Bft) S-SO22.5 165 0 min 18,6 klux 127 W/m
02.11.2014 09:34 13,2 C 14,7 C 14,6 C 84 % 1015,0 hPa 0,0 l/m 14,5 km/h (3 Bft) S-SO22.5 165 4 min 25,1 klux 172 W/m
02.11.2014 09:39 13,5 C 16,8 C 14,6 C 82 % 1014,9 hPa 0,0 l/m 18,9 km/h (3 Bft) S-SO45 165 5 min 26,1 klux 179 W/m
02.11.2014 09:44 13,7 C 18,6 C 14,6 C 82 % 1013,9 hPa 0,0 l/m 22,8 km/h (4 Bft) S-SO22.5 160 5 min 26,1 klux 179 W/m
02.11.2014 09:49 14,0 C 19,5 C 14,6 C 81 % 1013,9 hPa 0,0 l/m 18,8 km/h (3 Bft) S-SO45 160 5 min 27,9 klux 191 W/m
02.11.2014 09:54 14,2 C 21,1 C 14,6 C 80 % 1013,9 hPa 0,0 l/m 19,1 km/h (3 Bft) S-SO45 160 5 min 27,9 klux 191 W/m
02.11.2014 10:00 14,4 C 22,2 C 14,7 C 79 % 1013,9 hPa 0,0 l/m 20,8 km/h (4 Bft) S-SO22.5 165 6 min 27,9 klux 191 W/m
02.11.2014 10:04 14,5 C 22,6 C 14,6 C 79 % 1013,9 hPa 0,0 l/m 17,2 km/h (3 Bft) S-SO22.5 160 4 min 29,9 klux 205 W/m
02.11.2014 10:09 14,8 C 23,7 C 14,7 C 78 % 1013,9 hPa 0,0 l/m 17,6 km/h (3 Bft) S-SO45 160 5 min 30,4 klux 208 W/m
02.11.2014 10:14 15,0 C 24,7 C 14,7 C 78 % 1013,9 hPa 0,0 l/m 15,5 km/h (3 Bft) S-SO22.5 160 5 min 31,2 klux 213 W/m
02.11.2014 10:19 15,1 C 25,0 C 14,7 C 77 % 1013,9 hPa 0,0 l/m 16,3 km/h (3 Bft) S-SO45 160 5 min 36,9 klux 252 W/m
02.11.2014 10:24 15,4 C 26,1 C 14,7 C 76 % 1013,9 hPa 0,0 l/m 17,6 km/h (3 Bft) S-SO22.5 160 5 min 31,8 klux 218 W/m
02.11.2014 10:30 15,3 C 24,1 C 14,8 C 76 % 1013,9 hPa 0,0 l/m 18,3 km/h (3 Bft) S-SO22.5 165 6 min 27,6 klux 189 W/m
02.11.2014 10:34 15,3 C 22,4 C 14,8 C 76 % 1013,9 hPa 0,0 l/m 18,3 km/h (3 Bft) S-SO45 160 0 min 18,7 klux 128 W/m
02.11.2014 10:39 15,1 C 22,6 C 14,8 C 76 % 1013,9 hPa 0,0 l/m 23,4 km/h (4 Bft) S-SO22.5 160 5 min 32,3 klux 221 W/m
02.11.2014 10:44 15,4 C 24,3 C 14,9 C 76 % 1013,9 hPa 0,0 l/m 22,7 km/h (4 Bft) S22.5 170 0 min 22,1 klux 151 W/m
02.11.2014 10:49 15,6 C 25,7 C 14,9 C 76 % 1013,9 hPa 0,0 l/m 20,8 km/h (4 Bft) S-SO22.5 160 5 min 35,8 klux 245 W/m
02.11.2014 10:54 15,7 C 26,2 C 15,0 C 74 % 1013,9 hPa 0,0 l/m 23,6 km/h (4 Bft) S-SO67.5 160 5 min 35,9 klux 246 W/m
02.11.2014 11:00 15,9 C 27,1 C 15,0 C 74 % 1013,9 hPa 0,0 l/m 22,3 km/h (4 Bft) S22.5 170 6 min 36,5 klux 250 W/m
02.11.2014 11:04 15,9 C 27,6 C 15,0 C 74 % 1013,9 hPa 0,0 l/m 24,5 km/h (4 Bft) S-SO22.5 160 4 min 37,1 klux 254 W/m
02.11.2014 11:09 15,9 C 27,9 C 15,1 C 74 % 1013,9 hPa 0,0 l/m 24,7 km/h (4 Bft) S-SO45 165 5 min 37,5 klux 257 W/m
02.11.2014 11:14 16,2 C 28,8 C 15,1 C 74 % 1013,9 hPa 0,0 l/m 21,5 km/h (4 Bft) S-SO45 165 5 min 37,4 klux 256 W/m
02.11.2014 11:19 16,4 C 29,5 C 15,1 C 73 % 1013,9 hPa 0,0 l/m 21,5 km/h (4 Bft) S22.5 170 5 min 37,8 klux 259 W/m
02.11.2014 11:24 16,4 C 30,0 C 15,2 C 73 % 1013,9 hPa 0,0 l/m 20,1 km/h (4 Bft) S22.5 175 5 min 38,3 klux 262 W/m
02.11.2014 11:30 16,6 C 30,3 C 15,2 C 72 % 1013,9 hPa 0,0 l/m 19,0 km/h (3 Bft) S-SO45 165 6 min 38,5 klux 263 W/m
02.11.2014 11:35 16,8 C 30,8 C 15,3 C 72 % 1013,9 hPa 0,0 l/m 20,7 km/h (4 Bft) S22.5 170 5 min 39,1 klux 267 W/m
02.11.2014 11:39 16,8 C 30,9 C 15,3 C 71 % 1013,9 hPa 0,0 l/m 19,6 km/h (3 Bft) S45 170 4 min 39,1 klux 267 W/m
02.11.2014 11:44 16,9 C 30,9 C 15,3 C 71 % 1013,9 hPa 0,0 l/m 18,9 km/h (3 Bft) S-SO22.5 165 5 min 39,2 klux 268 W/m
02.11.2014 11:49 16,9 C 31,0 C 15,4 C 70 % 1012,9 hPa 0,0 l/m 22,2 km/h (4 Bft) S-SO45 160 5 min 39,1 klux 267 W/m
02.11.2014 11:54 17,0 C 30,4 C 15,4 C 70 % 1012,9 hPa 0,0 l/m 24,7 km/h (4 Bft) S-SO45 150 5 min 39,4 klux 269 W/m
02.11.2014 11:59 17,0 C 31,0 C 15,5 C 70 % 1012,9 hPa 0,0 l/m 19,6 km/h (3 Bft) S45 170 5 min 40,1 klux 274 W/m
02.11.2014 12:04 17,1 C 31,5 C 15,5 C 70 % 1012,9 hPa 0,0 l/m 22,3 km/h (4 Bft) S-SO22.5 165 5 min 40,5 klux 277 W/m
02.11.2014 12:09 17,2 C 31,8 C 15,6 C 69 % 1012,9 hPa 0,0 l/m 19,4 km/h (3 Bft) S22.5 170 5 min 37,9 klux 259 W/m
02.11.2014 12:14 17,2 C 30,9 C 15,7 C 69 % 1012,9 hPa 0,0 l/m 20,5 km/h (4 Bft) S22.5 170 5 min 40,5 klux 277 W/m
02.11.2014 12:19 17,4 C 31,1 C 15,8 C 68 % 1012,9 hPa 0,0 l/m 21,8 km/h (4 Bft) S22.5 180 5 min 39,9 klux 273 W/m
02.11.2014 12:25 17,6 C 31,8 C 15,9 C 68 % 1012,9 hPa 0,0 l/m 21,3 km/h (4 Bft) S-SO22.5 160 6 min 39,9 klux 273 W/m
02.11.2014 12:29 17,6 C 32,1 C 16,0 C 68 % 1012,9 hPa 0,0 l/m 19,1 km/h (3 Bft) S-SO45 160 4 min 39,3 klux 269 W/m
02.11.2014 12:34 17,7 C 32,4 C 16,1 C 68 % 1011,9 hPa 0,0 l/m 24,1 km/h (4 Bft) S-SO22.5 165 5 min 39,3 klux 269 W/m
02.11.2014 12:39 17,7 C 32,3 C 16,2 C 68 % 1011,9 hPa 0,0 l/m 24,4 km/h (4 Bft) S-SO45 160 5 min 39,4 klux 269 W/m
02.11.2014 12:44 17,7 C 32,2 C 16,3 C 68 % 1011,9 hPa 0,0 l/m 18,9 km/h (3 Bft) S-SO22.5 165 5 min 39,1 klux 267 W/m
02.11.2014 12:49 17,8 C 32,1 C 16,4 C 68 % 1011,9 hPa 0,0 l/m 20,8 km/h (4 Bft) S22.5 170 5 min 39,0 klux 267 W/m
02.11.2014 12:55 17,8 C 31,8 C 16,4 C 67 % 1011,9 hPa 0,0 l/m 25,1 km/h (4 Bft) S22.5 170 6 min 38,6 klux 264 W/m
02.11.2014 13:00 18,0 C 31,8 C 16,5 C 67 % 1011,9 hPa 0,0 l/m 21,3 km/h (4 Bft) S-SO22.5 165 5 min 38,4 klux 263 W/m
02.11.2014 13:04 18,0 C 31,7 C 16,7 C 67 % 1011,9 hPa 0,0 l/m 18,3 km/h (3 Bft) S-SO45 165 4 min 38,5 klux 263 W/m
02.11.2014 13:09 18,1 C 31,8 C 16,7 C 67 % 1011,9 hPa 0,0 l/m 19,8 km/h (3 Bft) S-SO22.5 160 5 min 38,1 klux 261 W/m
02.11.2014 13:14 18,2 C 31,7 C 16,8 C 66 % 1011,9 hPa 0,0 l/m 20,0 km/h (4 Bft) S22.5 170 5 min 38,0 klux 260 W/m
02.11.2014 13:19 18,3 C 31,6 C 16,9 C 67 % 1011,9 hPa 0,0 l/m 23,7 km/h (4 Bft) S22.5 170 5 min 37,8 klux 259 W/m
02.11.2014 13:25 18,4 C 31,5 C 16,9 C 65 % 1011,8 hPa 0,0 l/m 23,0 km/h (4 Bft) S-SO22.5 160 6 min 37,3 klux 255 W/m
02.11.2014 13:29 18,6 C 31,6 C 17,0 C 66 % 1011,8 hPa 0,0 l/m 18,9 km/h (3 Bft) S-SO22.5 160 4 min 36,9 klux 252 W/m
02.11.2014 13:34 18,5 C 31,3 C 17,0 C 66 % 1011,8 hPa 0,0 l/m 18,9 km/h (3 Bft) S-SO22.5 160 5 min 36,7 klux 251 W/m
02.11.2014 13:40 18,4 C 31,1 C 17,1 C 66 % 1011,8 hPa 0,0 l/m 23,1 km/h (4 Bft) S-SO22.5 165 6 min 36,2 klux 248 W/m
02.11.2014 13:45 18,5 C 30,9 C 17,2 C 66 % 1011,8 hPa 0,0 l/m 17,8 km/h (3 Bft) S45 170 5 min 35,7 klux 244 W/m
02.11.2014 13:49 18,6 C 31,0 C 17,2 C 66 % 1011,8 hPa 0,0 l/m 17,1 km/h (3 Bft) S-SO22.5 160 4 min 35,7 klux 244 W/m
02.11.2014 13:54 18,5 C 30,8 C 17,3 C 65 % 1010,8 hPa 0,0 l/m 18,6 km/h (3 Bft) S-SO22.5 160 5 min 34,9 klux 239 W/m
02.11.2014 13:59 18,6 C 30,5 C 17,3 C 65 % 1010,8 hPa 0,0 l/m 22,5 km/h (4 Bft) S-SO45 160 5 min 34,1 klux 233 W/m
02.11.2014 14:05 18,6 C 29,7 C 17,4 C 66 % 1010,8 hPa 0,0 l/m 20,0 km/h (4 Bft) S-SO22.5 165 6 min 34,5 klux 236 W/m
02.11.2014 14:10 18,7 C 29,6 C 17,4 C 65 % 1010,8 hPa 0,0 l/m 19,0 km/h (3 Bft) S-SO45 155 0 min 24,1 klux 165 W/m
02.11.2014 14:14 18,6 C 29,6 C 17,5 C 65 % 1010,8 hPa 0,0 l/m 19,0 km/h (3 Bft) S-SO22.5 165 0 min 11,0 klux 75 W/m
02.11.2014 14:19 18,1 C 25,1 C 17,5 C 66 % 1010,8 hPa 0,0 l/m 24,0 km/h (4 Bft) S45 175 0 min 11,9 klux 81 W/m
02.11.2014 14:24 18,0 C 23,0 C 17,5 C 66 % 1010,9 hPa 0,0 l/m 17,0 km/h (3 Bft) S-SO45 165 0 min 11,5 klux 79 W/m
02.11.2014 14:29 17,8 C 22,3 C 17,5 C 67 % 1010,9 hPa 0,0 l/m 17,0 km/h (3 Bft) S-SO45 165 0 min 12,4 klux 85 W/m
02.11.2014 14:34 17,6 C 21,3 C 17,5 C 68 % 1010,9 hPa 0,0 l/m 18,5 km/h (3 Bft) S-SO22.5 165 0 min 10,7 klux 73 W/m
02.11.2014 14:40 17,6 C 20,6 C 17,5 C 68 % 1010,9 hPa 0,0 l/m 19,4 km/h (3 Bft) S22.5 170 0 min 10,7 klux 73 W/m
02.11.2014 14:44 17,5 C 20,4 C 17,5 C 68 % 1010,9 hPa 0,0 l/m 18,3 km/h (3 Bft) S45 170 0 min 10,7 klux 73 W/m
02.11.2014 14:49 17,6 C 20,6 C 17,5 C 68 % 1010,9 hPa 0,0 l/m 17,4 km/h (3 Bft) S-SO22.5 165 0 min 10,8 klux 74 W/m
02.11.2014 14:54 17,6 C 20,7 C 17,4 C 68 % 1010,9 hPa 0,0 l/m 17,4 km/h (3 Bft) S-SO22.5 165 0 min 10,0 klux 68 W/m
02.11.2014 14:59 17,6 C 20,6 C 17,4 C 68 % 1010,9 hPa 0,0 l/m 16,5 km/h (3 Bft) S22.5 175 0 min 9,4 klux 64 W/m
02.11.2014 15:05 17,8 C 20,5 C 17,4 C 67 % 1010,9 hPa 0,0 l/m 13,8 km/h (3 Bft) S-SO22.5 160 0 min 8,59 klux 59 W/m
02.11.2014 15:09 17,8 C 20,3 C 17,4 C 68 % 1010,9 hPa 0,0 l/m 14,4 km/h (3 Bft) S22.5 170 0 min 7,67 klux 52 W/m
02.11.2014 15:14 17,8 C 20,1 C 17,4 C 68 % 1010,9 hPa 0,0 l/m 14,5 km/h (3 Bft) S22.5 175 0 min 7,36 klux 50 W/m
02.11.2014 15:19 17,7 C 20,0 C 17,4 C 68 % 1010,9 hPa 0,0 l/m 16,5 km/h (3 Bft) S22.5 175 0 min 7,16 klux 49 W/m
02.11.2014 15:24 17,8 C 19,8 C 17,3 C 68 % 1009,8 hPa 0,0 l/m 16,5 km/h (3 Bft) S22.5 175 0 min 6,58 klux 45 W/m
02.11.2014 15:29 17,8 C 19,8 C 17,3 C 68 % 1009,8 hPa 0,0 l/m 16,1 km/h (3 Bft) S22.5 175 0 min 6,53 klux 45 W/m
02.11.2014 15:35 17,9 C 19,5 C 17,3 C 68 % 1009,8 hPa 0,0 l/m 17,3 km/h (3 Bft) S22.5 180 0 min 5,04 klux 34 W/m
02.11.2014 15:40 18,0 C 19,2 C 17,3 C 65 % 1009,8 hPa 0,0 l/m 24,1 km/h (4 Bft) S45 190 0 min 3,91 klux 27 W/m
02.11.2014 15:44 18,0 C 19,1 C 17,3 C 65 % 1009,8 hPa 0,0 l/m 25,6 km/h (4 Bft) S-SW45 200 0 min 10,3 klux 70 W/m
02.11.2014 15:49 18,0 C 20,7 C 17,4 C 66 % 1009,8 hPa 0,0 l/m 26,4 km/h (4 Bft) S-SW45 210 5 min 21,4 klux 146 W/m
02.11.2014 15:54 18,1 C 20,9 C 17,4 C 64 % 1009,8 hPa 0,0 l/m 28,4 km/h (5 Bft) S-SW45 195 5 min 15,1 klux 103 W/m
02.11.2014 15:59 18,0 C 19,8 C 17,4 C 65 % 1009,8 hPa 0,0 l/m 23,5 km/h (4 Bft) S-SW22.5 195 0 min 9,3 klux 64 W/m
02.11.2014 16:05 17,9 C 19,5 C 17,4 C 65 % 1009,8 hPa 0,0 l/m 21,6 km/h (4 Bft) S22.5 185 6 min 14,3 klux 98 W/m
02.11.2014 16:04 17,9 C 19,5 C 17,4 C 65 % 1009,8 hPa 0,0 l/m 21,6 km/h (4 Bft) S22.5 185 -1 min 14,3 klux 98 W/m
02.11.2014 16:10 17,8 C 19,8 C 17,5 C 66 % 1009,8 hPa 0,0 l/m 21,4 km/h (4 Bft) S45 185 6 min 12,8 klux 88 W/m
02.11.2014 16:15 17,7 C 19,6 C 17,4 C 67 % 1009,9 hPa 0,0 l/m 19,0 km/h (3 Bft) S45 180 0 min 7,01 klux 48 W/m
02.11.2014 16:19 17,7 C 18,4 C 17,4 C 67 % 1009,9 hPa 0,0 l/m 22,2 km/h (4 Bft) S22.5 175 0 min 5,80 klux 40 W/m
02.11.2014 16:24 17,2 C 17,3 C 17,4 C 68 % 1009,9 hPa 0,0 l/m 20,9 km/h (4 Bft) S45 175 0 min 4,25 klux 29 W/m
02.11.2014 16:29 17,0 C 16,9 C 17,4 C 69 % 1009,9 hPa 0,0 l/m 18,5 km/h (3 Bft) S22.5 180 0 min 3,38 klux 23 W/m
02.11.2014 16:34 17,0 C 16,3 C 17,3 C 69 % 1009,9 hPa 0,0 l/m 19,1 km/h (3 Bft) S45 185 0 min 2,72 klux 19 W/m
02.11.2014 16:39 16,8 C 15,9 C 17,3 C 70 % 1009,9 hPa 0,0 l/m 21,5 km/h (4 Bft) S22.5 175 0 min 1,45 klux 10 W/m
02.11.2014 16:45 16,7 C 15,9 C 17,3 C 70 % 1009,9 hPa 0,0 l/m 17,0 km/h (3 Bft) S22.5 175 0 min 1,16 klux 8 W/m
02.11.2014 16:49 16,6 C 16,1 C 17,2 C 71 % 1009,9 hPa 0,0 l/m 24,1 km/h (4 Bft) S22.5 180 0 min 927 lux 6 W/m
02.11.2014 16:54 16,5 C 16,1 C 17,2 C 71 % 1009,9 hPa 0,0 l/m 15,5 km/h (3 Bft) S22.5 175 0 min 632 lux 4 W/m
02.11.2014 16:59 16,5 C 16,0 C 17,1 C 71 % 1009,9 hPa 0,0 l/m 19,6 km/h (3 Bft) S45 170 0 min 363 lux 2 W/m
02.11.2014 17:04 16,4 C 15,9 C 17,1 C 72 % 1009,9 hPa 0,0 l/m 22,9 km/h (4 Bft) S22.5 175 0 min 239 lux 0 W/m
02.11.2014 17:10 16,4 C 15,8 C 17,1 C 72 % 1009,9 hPa 0,0 l/m 22,3 km/h (4 Bft) S-SO45 165 0 min 215 lux 0 W/m
02.11.2014 17:15 16,3 C 15,7 C 17,1 C 72 % 1009,9 hPa 0,0 l/m 20,7 km/h (4 Bft) S45 170 0 min 89 lux 0 W/m
02.11.2014 17:19 16,2 C 15,6 C 17,0 C 73 % 1009,9 hPa 0,0 l/m 19,3 km/h (3 Bft) S22.5 170 0 min 51 lux 0 W/m
02.11.2014 17:24 16,2 C 15,5 C 17,0 C 73 % 1009,9 hPa 0,0 l/m 22,6 km/h (4 Bft) S22.5 170 0 min 18 lux 0 W/m
02.11.2014 17:29 16,2 C 15,6 C 16,9 C 73 % 1009,9 hPa 0,0 l/m 18,8 km/h (3 Bft) S22.5 170 0 min 8 lux 0 W/m
02.11.2014 17:34 16,1 C 15,5 C 16,9 C 73 % 1008,9 hPa 0,0 l/m 16,6 km/h (3 Bft) S-SO22.5 165 0 min 2 lux 0 W/m
02.11.2014 17:39 16,1 C 15,3 C 16,9 C 73 % 1008,9 hPa 0,0 l/m 19,9 km/h (4 Bft) S-SO45 165 0 min 0 lux 0 W/m
02.11.2014 17:45 16,0 C 14,7 C 16,8 C 74 % 1008,9 hPa 0,0 l/m 18,5 km/h (3 Bft) S-SO22.5 165 0 min 0 lux 0 W/m
02.11.2014 17:49 15,8 C 14,4 C 16,8 C 74 % 1008,9 hPa 0,0 l/m 14,6 km/h (3 Bft) S22.5 170 0 min 0 lux 0 W/m
02.11.2014 17:54 15,7 C 13,9 C 16,8 C 74 % 1008,9 hPa 0,0 l/m 24,0 km/h (4 Bft) S-SO22.5 165 0 min 0 lux 0 W/m
02.11.2014 17:59 15,6 C 13,5 C 16,8 C 74 % 1008,9 hPa 0,0 l/m 19,3 km/h (3 Bft) S22.5 170 0 min 0 lux 0 W/m
02.11.2014 18:04 15,5 C 13,1 C 16,7 C 75 % 1008,9 hPa 0,0 l/m 21,1 km/h (4 Bft) S45 170 0 min 0 lux 0 W/m
02.11.2014 18:10 15,3 C 13,1 C 16,7 C 75 % 1008,9 hPa 0,0 l/m 26,0 km/h (4 Bft) S-SO22.5 165 0 min 0 lux 0 W/m
02.11.2014 18:15 15,3 C 12,9 C 16,7 C 76 % 1008,9 hPa 0,0 l/m 26,0 km/h (4 Bft) S-SO22.5 165 0 min 0 lux 0 W/m
02.11.2014 18:19 15,2 C 12,8 C 16,6 C 76 % 1008,9 hPa 0,0 l/m 21,3 km/h (4 Bft) S22.5 170 0 min 0 lux 0 W/m
02.11.2014 18:24 15,1 C 12,7 C 16,6 C 76 % 1008,9 hPa 0,0 l/m 19,6 km/h (3 Bft) S-SO45 160 0 min 0 lux 0 W/m
02.11.2014 18:29 15,0 C 12,6 C 16,6 C 76 % 1008,9 hPa 0,0 l/m 19,6 km/h (3 Bft) S-SO45 160 0 min 0 lux 0 W/m
02.11.2014 18:34 15,0 C 12,6 C 16,6 C 77 % 1008,9 hPa 0,0 l/m 19,6 km/h (3 Bft) S-SO45 160 0 min 0 lux 0 W/m
02.11.2014 18:39 15,0 C 12,5 C 16,5 C 77 % 1008,9 hPa 0,0 l/m 24,3 km/h (4 Bft) S22.5 170 0 min 0 lux 0 W/m
02.11.2014 18:45 15,0 C 12,5 C 16,5 C 77 % 1008,9 hPa 0,0 l/m 23,0 km/h (4 Bft) S45 170 0 min 0 lux 0 W/m
02.11.2014 18:49 15,0 C 12,5 C 16,5 C 77 % 1008,9 hPa 0,0 l/m 20,5 km/h (4 Bft) S-SO45 165 0 min 0 lux 0 W/m
02.11.2014 18:54 15,0 C 12,5 C 16,5 C 77 % 1008,9 hPa 0,0 l/m 15,1 km/h (3 Bft) S-SO22.5 160 0 min 0 lux 0 W/m
02.11.2014 18:59 15,0 C 12,4 C 16,4 C 78 % 1008,9 hPa 0,0 l/m 23,2 km/h (4 Bft) S45 170 0 min 0 lux 0 W/m
02.11.2014 19:04 15,0 C 12,4 C 16,4 C 78 % 1008,9 hPa 0,0 l/m 18,8 km/h (3 Bft) S22.5 170 0 min 0 lux 0 W/m
02.11.2014 19:10 15,0 C 12,5 C 16,4 C 78 % 1008,9 hPa 0,0 l/m 18,5 km/h (3 Bft) S-SO22.5 165 0 min 0 lux 0 W/m
02.11.2014 19:15 15,0 C 12,4 C 16,4 C 78 % 1008,9 hPa 0,0 l/m 18,5 km/h (3 Bft) S-SO22.5 165 0 min 0 lux 0 W/m
02.11.2014 19:19 14,9 C 12,3 C 16,4 C 78 % 1008,9 hPa 0,0 l/m 18,9 km/h (3 Bft) S-SO45 165 0 min 0 lux 0 W/m
02.11.2014 19:24 14,8 C 12,3 C 16,3 C 78 % 1008,9 hPa 0,0 l/m 16,7 km/h (3 Bft) S-SO45 155 0 min 0 lux 0 W/m
02.11.2014 19:29 14,8 C 12,3 C 16,3 C 78 % 1007,9 hPa 0,0 l/m 19,3 km/h (3 Bft) S45 170 0 min 0 lux 0 W/m
02.11.2014 19:34 14,8 C 12,5 C 16,3 C 78 % 1007,9 hPa 0,0 l/m 24,8 km/h (4 Bft) S45 170 0 min 0 lux 0 W/m
02.11.2014 19:39 14,8 C 12,6 C 16,3 C 79 % 1007,9 hPa 0,0 l/m 25,6 km/h (4 Bft) S45 170 0 min 0 lux 0 W/m
02.11.2014 19:45 14,7 C 12,6 C 16,3 C 79 % 1007,9 hPa 0,0 l/m 21,8 km/h (4 Bft) S-SO45 165 0 min 0 lux 0 W/m
02.11.2014 19:49 14,7 C 12,5 C 16,2 C 79 % 1007,9 hPa 0,0 l/m 18,3 km/h (3 Bft) S45 175 0 min 0 lux 0 W/m
02.11.2014 19:54 14,6 C 12,3 C 16,2 C 79 % 1007,9 hPa 0,0 l/m 24,1 km/h (4 Bft) S-SO22.5 165 0 min 0 lux 0 W/m
02.11.2014 19:59 14,7 C 12,3 C 16,2 C 80 % 1007,9 hPa 0,0 l/m 24,6 km/h (4 Bft) S22.5 170 0 min 0 lux 0 W/m
02.11.2014 20:04 14,6 C 12,3 C 16,2 C 80 % 1007,9 hPa 0,0 l/m 22,0 km/h (4 Bft) S45 170 0 min 0 lux 0 W/m
02.11.2014 20:10 14,6 C 12,2 C 16,2 C 80 % 1007,9 hPa 0,0 l/m 25,8 km/h (4 Bft) S22.5 170 0 min 0 lux 0 W/m
02.11.2014 20:14 14,6 C 12,3 C 16,2 C 80 % 1007,9 hPa 0,0 l/m 21,1 km/h (4 Bft) S-SO22.5 165 0 min 0 lux 0 W/m
02.11.2014 20:19 14,5 C 12,3 C 16,2 C 80 % 1007,9 hPa 0,0 l/m 21,8 km/h (4 Bft) S-SO22.5 165 0 min 0 lux 0 W/m
02.11.2014 20:24 14,6 C 12,5 C 16,1 C 80 % 1007,9 hPa 0,0 l/m 23,7 km/h (4 Bft) S-SO45 165 0 min 0 lux 0 W/m
02.11.2014 20:29 14,6 C 12,7 C 16,1 C 80 % 1007,9 hPa 0,0 l/m 22,4 km/h (4 Bft) S-SO22.5 165 0 min 0 lux 0 W/m
02.11.2014 20:34 14,7 C 12,9 C 16,1 C 80 % 1007,9 hPa 0,0 l/m 22,3 km/h (4 Bft) S22.5 170 0 min 0 lux 0 W/m
02.11.2014 20:40 14,8 C 13,1 C 16,1 C 80 % 1007,9 hPa 0,0 l/m 22,1 km/h (4 Bft) S22.5 170 0 min 0 lux 0 W/m
02.11.2014 20:45 14,8 C 13,2 C 16,1 C 80 % 1007,9 hPa 0,0 l/m 22,8 km/h (4 Bft) S22.5 175 0 min 0 lux 0 W/m
02.11.2014 20:49 15,0 C 13,7 C 16,1 C 79 % 1007,9 hPa 0,0 l/m 24,6 km/h (4 Bft) S22.5 170 0 min 0 lux 0 W/m
02.11.2014 20:54 15,0 C 13,8 C 16,1 C 79 % 1007,9 hPa 0,0 l/m 23,1 km/h (4 Bft) S-SO22.5 165 0 min 0 lux 0 W/m
02.11.2014 20:59 15,0 C 13,9 C 16,1 C 79 % 1007,9 hPa 0,0 l/m 22,0 km/h (4 Bft) S45 175 0 min 0 lux 0 W/m
02.11.2014 21:04 15,0 C 13,9 C 16,1 C 79 % 1007,9 hPa 0,0 l/m 23,3 km/h (4 Bft) S22.5 170 0 min 0 lux 0 W/m
02.11.2014 21:10 15,0 C 13,8 C 16,1 C 80 % 1007,9 hPa 0,0 l/m 20,6 km/h (4 Bft) S45 170 0 min 0 lux 0 W/m
02.11.2014 21:14 15,0 C 13,6 C 16,1 C 80 % 1007,9 hPa 0,0 l/m 20,6 km/h (4 Bft) S45 170 0 min 0 lux 0 W/m
02.11.2014 21:19 15,0 C 13,6 C 16,1 C 81 % 1007,9 hPa 0,0 l/m 22,6 km/h (4 Bft) S22.5 175 0 min 0 lux 0 W/m
02.11.2014 21:24 14,8 C 13,6 C 16,1 C 81 % 1007,9 hPa 0,4 l/m 18,3 km/h (3 Bft) S45 175 0 min 0 lux 0 W/m
02.11.2014 21:29 14,6 C 13,5 C 16,1 C 83 % 1007,9 hPa 0,4 l/m 18,3 km/h (3 Bft) S45 175 0 min 0 lux 0 W/m
02.11.2014 21:34 14,4 C 13,4 C 16,1 C 83 % 1007,9 hPa 0,0 l/m 18,3 km/h (3 Bft) S45 175 0 min 0 lux 0 W/m
02.11.2014 21:40 14,3 C 13,1 C 16,1 C 84 % 1007,9 hPa 0,0 l/m 16,6 km/h (3 Bft) S22.5 170 0 min 0 lux 0 W/m
02.11.2014 21:45 14,3 C 13,0 C 16,1 C 84 % 1007,9 hPa 0,0 l/m 21,5 km/h (4 Bft) S22.5 170 0 min 0 lux 0 W/m
02.11.2014 21:49 14,2 C 12,9 C 16,1 C 85 % 1007,9 hPa 0,0 l/m 21,5 km/h (4 Bft) S22.5 170 0 min 0 lux 0 W/m
02.11.2014 21:54 14,2 C 12,8 C 16,0 C 85 % 1007,9 hPa 0,0 l/m 23,6 km/h (4 Bft) S22.5 170 0 min 0 lux 0 W/m
02.11.2014 21:59 14,2 C 12,9 C 16,0 C 85 % 1006,9 hPa 0,0 l/m 19,5 km/h (3 Bft) S22.5 170 0 min 0 lux 0 W/m
02.11.2014 22:04 14,2 C 13,1 C 16,0 C 85 % 1006,9 hPa 0,0 l/m 19,5 km/h (3 Bft) S22.5 170 0 min 0 lux 0 W/m
02.11.2014 22:05 14,2 C 13,1 C 16,0 C 85 % 1006,9 hPa 0,0 l/m 19,5 km/h (3 Bft) S22.5 170 0 min 0 lux 0 W/m
02.11.2014 22:09 14,2 C 13,2 C 16,0 C 86 % 1006,9 hPa 0,0 l/m 25,3 km/h (4 Bft) S45 170 0 min 0 lux 0 W/m
02.11.2014 22:14 14,2 C 13,2 C 16,0 C 86 % 1006,9 hPa 0,0 l/m 16,9 km/h (3 Bft) S22.5 170 0 min 0 lux 0 W/m
02.11.2014 22:20 14,2 C 13,2 C 16,0 C 86 % 1006,9 hPa 0,0 l/m 23,8 km/h (4 Bft) S22.5 170 0 min 0 lux 0 W/m
02.11.2014 22:24 14,2 C 13,2 C 16,0 C 86 % 1006,9 hPa 0,0 l/m 30,8 km/h (5 Bft) S-SO45 160 0 min 0 lux 0 W/m
02.11.2014 22:29 14,1 C 13,1 C 16,0 C 86 % 1006,9 hPa 0,0 l/m 21,0 km/h (4 Bft) S-SO22.5 165 0 min 0 lux 0 W/m
02.11.2014 22:34 14,1 C 12,9 C 16,0 C 86 % 1006,9 hPa 0,0 l/m 19,5 km/h (3 Bft) S-SO45 165 0 min 0 lux 0 W/m
02.11.2014 22:39 14,1 C 12,8 C 16,0 C 86 % 1006,9 hPa 0,0 l/m 22,4 km/h (4 Bft) S-SO45 160 0 min 0 lux 0 W/m
02.11.2014 22:44 14,1 C 12,8 C 16,0 C 86 % 1006,9 hPa 0,0 l/m 26,5 km/h (4 Bft) S-SO22.5 165 0 min 0 lux 0 W/m
02.11.2014 22:50 14,1 C 12,6 C 16,0 C 85 % 1006,9 hPa 0,0 l/m 21,0 km/h (4 Bft) S-SO67.5 160 0 min 0 lux 0 W/m
02.11.2014 22:55 14,1 C 12,5 C 15,9 C 85 % 1006,9 hPa 0,0 l/m 21,0 km/h (4 Bft) S-SO67.5 160 0 min 0 lux 0 W/m
02.11.2014 22:59 14,0 C 12,4 C 16,0 C 85 % 1006,9 hPa 0,0 l/m 14,3 km/h (3 Bft) S-SO22.5 160 0 min 0 lux 0 W/m
02.11.2014 23:04 14,0 C 12,5 C 16,0 C 86 % 1006,9 hPa 0,0 l/m 19,1 km/h (3 Bft) S-SO45 165 0 min 0 lux 0 W/m
02.11.2014 23:09 14,0 C 12,5 C 16,0 C 86 % 1005,9 hPa 0,0 l/m 21,3 km/h (4 Bft) S-SO22.5 160 0 min 0 lux 0 W/m
02.11.2014 23:15 14,0 C 12,5 C 15,9 C 86 % 1005,9 hPa 0,0 l/m 21,8 km/h (4 Bft) S45 170 0 min 0 lux 0 W/m
02.11.2014 23:14 14,0 C 12,5 C 15,9 C 86 % 1005,9 hPa 0,0 l/m 21,8 km/h (4 Bft) S45 170 0 min 0 lux 0 W/m
02.11.2014 23:19 13,9 C 12,4 C 15,9 C 86 % 1005,9 hPa 0,0 l/m 17,4 km/h (3 Bft) S-SO22.5 165 0 min 0 lux 0 W/m
02.11.2014 23:25 13,8 C 12,4 C 15,9 C 86 % 1005,9 hPa 0,0 l/m 14,6 km/h (3 Bft) S22.5 170 0 min 0 lux 0 W/m
02.11.2014 23:30 13,8 C 12,2 C 15,9 C 86 % 1005,9 hPa 0,0 l/m 13,5 km/h (3 Bft) S-SO45 165 0 min 0 lux 0 W/m
02.11.2014 23:34 13,8 C 12,3 C 15,9 C 86 % 1005,9 hPa 0,0 l/m 13,5 km/h (3 Bft) S-SO45 165 0 min 0 lux 0 W/m
02.11.2014 23:39 13,8 C 12,4 C 15,9 C 86 % 1005,9 hPa 0,0 l/m 18,2 km/h (3 Bft) S22.5 170 0 min 0 lux 0 W/m
02.11.2014 23:44 13,8 C 12,6 C 15,9 C 86 % 1005,9 hPa 0,0 l/m 18,1 km/h (3 Bft) S45 170 0 min 0 lux 0 W/m
02.11.2014 23:49 13,9 C 12,7 C 15,9 C 86 % 1005,9 hPa 0,0 l/m 14,1 km/h (3 Bft) S22.5 170 0 min 0 lux 0 W/m
02.11.2014 23:55 14,0 C 12,7 C 15,9 C 86 % 1005,9 hPa 0,0 l/m 19,2 km/h (3 Bft) S45 170 0 min 0 lux 0 W/m
_ Min-Zeit 08:10 03:19 08:59 15:54 23:09 - 01:04 - - - - -
Minimum _ 12,5 C 10,5 C 14,6 C 64 % 1005,9 hPa - 10,1 km/h (2 Bft) - - - - -
_ Max-Zeit 14:10 12:34 14:14 22:09 00:54 21:24 22:24 - - 10:00 12:04 12:04
Maximum _ 18,7 C 32,4 C 17,5 C 86 % 1017,0 hPa 0,4 l/m 30,8 km/h
S-SO (5 Bft)
- - 6 min 40,5 klux 277 W/m
Durchschnitt _ 14,7 C 16,1 C 15,8 C 79 % 1012,1 hPa #0,7 l/m 18,0 km/h (3 Bft) S-SO - #4:47 h 8,13 klux 141 W/m